DAL1211 KLAX-KSAN

Flight info

Callsign DAL1211
Flight time 0h 50m
Altitude 13000
Route LAXX1 MZB
Aircraft A359/H-SDE2E3GHIJ3J4J5LM1ORWXY/LB1D1

Departure

Time 2026-05-04 04:20
Airport Los Angeles International Airport (KLAX)

Arrival

Time 2026-05-04 05:10
Airport San Diego International Airport (KSAN)
Time Latitude Longitude Altitude Speed Heading
2026-05-04 03:30 33.93942 -118.40638 102 ft 0 kts 344°
2026-05-04 04:01 33.93932 -118.40634 93 ft 3 kts 353°
2026-05-04 04:01 33.93913 -118.40635 100 ft 3 kts 29°
2026-05-04 04:02 33.93900 -118.40650 97 ft 3 kts 63°
2026-05-04 04:02 33.93894 -118.40671 100 ft 1 kts 83°
2026-05-04 04:07 33.93897 -118.40647 103 ft 7 kts 81°
2026-05-04 04:08 33.93908 -118.40549 100 ft 15 kts 85°
2026-05-04 04:08 33.93912 -118.40505 102 ft 0 kts 85°
2026-05-04 04:09 33.93913 -118.40484 100 ft 6 kts 84°
2026-05-04 04:09 33.93920 -118.40407 100 ft 13 kts 82°
2026-05-04 04:09 33.93921 -118.40316 102 ft 5 kts 119°
2026-05-04 04:10 33.93883 -118.40292 102 ft 8 kts 164°
2026-05-04 04:10 33.93855 -118.40220 106 ft 13 kts 84°
2026-05-04 04:10 33.93871 -118.40082 104 ft 19 kts 83°
2026-05-04 04:10 33.93888 -118.39912 102 ft 22 kts 83°
2026-05-04 04:11 33.93907 -118.39713 101 ft 25 kts 83°
2026-05-04 04:11 33.93927 -118.39518 104 ft 20 kts 83°
2026-05-04 04:11 33.93946 -118.39344 101 ft 21 kts 83°
2026-05-04 04:11 33.93961 -118.39200 102 ft 16 kts 83°
2026-05-04 04:12 33.93975 -118.39056 101 ft 19 kts 83°
2026-05-04 04:12 33.93986 -118.38942 100 ft 13 kts 83°
2026-05-04 04:12 33.93998 -118.38813 103 ft 18 kts 83°
2026-05-04 04:12 33.94010 -118.38686 103 ft 15 kts 83°
2026-05-04 04:13 33.94025 -118.38564 103 ft 15 kts 82°
2026-05-04 04:13 33.94032 -118.38500 103 ft 0 kts 83°
2026-05-04 04:14 33.94034 -118.38480 103 ft 6 kts 83°
2026-05-04 04:15 33.94040 -118.38420 105 ft 0 kts 83°
2026-05-04 04:16 33.94044 -118.38375 102 ft 8 kts 88°
2026-05-04 04:16 33.94037 -118.38356 103 ft 0 kts 121°
2026-05-04 04:17 33.94025 -118.38337 106 ft 7 kts 134°
2026-05-04 04:17 33.93988 -118.38323 104 ft 5 kts 175°
2026-05-04 04:17 33.93956 -118.38344 105 ft 6 kts 231°
2026-05-04 04:17 33.93946 -118.38389 105 ft 0 kts 263°
2026-05-04 04:19 33.93942 -118.38431 105 ft 28 kts 263°
2026-05-04 04:19 33.93910 -118.38743 106 ft 84 kts 263°
2026-05-04 04:19 33.93762 -118.40169 298 ft 156 kts 263°
2026-05-04 04:20 33.93654 -118.41049 879 ft 161 kts 261°
2026-05-04 04:20 33.93479 -118.42429 1556 ft 179 kts 260°
2026-05-04 04:20 33.93159 -118.44593 2254 ft 213 kts 251°
2026-05-04 04:20 33.92222 -118.46049 2846 ft 234 kts 212°
2026-05-04 04:21 33.90625 -118.46496 3638 ft 243 kts 173°
2026-05-04 04:21 33.89122 -118.45703 4404 ft 237 kts 138°
2026-05-04 04:21 33.88320 -118.43999 4879 ft 240 kts 103°
2026-05-04 04:21 33.88330 -118.42643 4961 ft 243 kts 79°
2026-05-04 04:22 33.88835 -118.40710 4980 ft 246 kts 75°
2026-05-04 04:22 33.88940 -118.38662 4992 ft 242 kts 104°
2026-05-04 04:22 33.88216 -118.36903 4983 ft 239 kts 133°
2026-05-04 04:22 33.86844 -118.35828 4994 ft 239 kts 162°
2026-05-04 04:23 33.85196 -118.35746 4983 ft 245 kts 192°
2026-05-04 04:23 33.83669 -118.36712 4996 ft 253 kts 220°
2026-05-04 04:23 33.82710 -118.38478 4985 ft 257 kts 249°
2026-05-04 04:23 33.82338 -118.40588 4992 ft 258 kts 260°
2026-05-04 04:24 33.82122 -118.42734 4991 ft 260 kts 261°
2026-05-04 04:24 33.81921 -118.44893 4988 ft 259 kts 262°
2026-05-04 04:24 33.81726 -118.47053 4990 ft 259 kts 261°
2026-05-04 04:24 33.81535 -118.49205 5204 ft 260 kts 261°
2026-05-04 04:25 33.81350 -118.51341 5728 ft 260 kts 261°
2026-05-04 04:25 33.81187 -118.53510 6333 ft 261 kts 261°
2026-05-04 04:25 33.81056 -118.55689 6900 ft 263 kts 262°
2026-05-04 04:25 33.80929 -118.57898 7463 ft 266 kts 261°
2026-05-04 04:26 33.80668 -118.60088 7856 ft 263 kts 248°
2026-05-04 04:26 33.79744 -118.61917 7980 ft 254 kts 221°
2026-05-04 04:26 33.78257 -118.62986 7991 ft 250 kts 197°
2026-05-04 04:26 33.76578 -118.63537 7985 ft 251 kts 192°
2026-05-04 04:27 33.74856 -118.63869 7981 ft 251 kts 182°
2026-05-04 04:27 33.73107 -118.63840 7980 ft 251 kts 181°
2026-05-04 04:27 33.71373 -118.64101 7983 ft 251 kts 190°
2026-05-04 04:27 33.69651 -118.64414 7981 ft 252 kts 181°
2026-05-04 04:28 33.67955 -118.63903 7988 ft 256 kts 153°
2026-05-04 04:28 33.66648 -118.62442 7985 ft 263 kts 126°
2026-05-04 04:28 33.65891 -118.60428 7986 ft 267 kts 113°
2026-05-04 04:28 33.65310 -118.58293 7984 ft 269 kts 111°
2026-05-04 04:29 33.64752 -118.56150 7984 ft 269 kts 111°
2026-05-04 04:29 33.64196 -118.54002 7986 ft 269 kts 111°
2026-05-04 04:29 33.63640 -118.51858 7988 ft 270 kts 111°
2026-05-04 04:29 33.63082 -118.49705 8153 ft 270 kts 111°
2026-05-04 04:30 33.62531 -118.47574 8666 ft 272 kts 111°
2026-05-04 04:30 33.61969 -118.45405 9293 ft 273 kts 111°
2026-05-04 04:30 33.61399 -118.43208 10028 ft 277 kts 111°
2026-05-04 04:30 33.60823 -118.40984 10738 ft 281 kts 111°
2026-05-04 04:31 33.60242 -118.38725 11467 ft 286 kts 111°
2026-05-04 04:31 33.59656 -118.36423 12199 ft 290 kts 112°
2026-05-04 04:31 33.59075 -118.34093 12739 ft 294 kts 111°
2026-05-04 04:31 33.58489 -118.31725 12978 ft 297 kts 111°
2026-05-04 04:32 33.57854 -118.29366 12993 ft 296 kts 117°
2026-05-04 04:32 33.56907 -118.27203 12990 ft 292 kts 126°
2026-05-04 04:32 33.55828 -118.25131 12986 ft 294 kts 128°
2026-05-04 04:32 33.54703 -118.23056 12987 ft 297 kts 128°
2026-05-04 04:33 33.53568 -118.20993 12992 ft 294 kts 129°
2026-05-04 04:33 33.52440 -118.18959 12991 ft 294 kts 129°
2026-05-04 04:33 33.51318 -118.16948 12989 ft 293 kts 129°
2026-05-04 04:33 33.50184 -118.14920 12991 ft 293 kts 129°
2026-05-04 04:34 33.49047 -118.12893 12992 ft 294 kts 129°
2026-05-04 04:34 33.47904 -118.10856 12982 ft 294 kts 129°
2026-05-04 04:34 33.46764 -118.08826 12981 ft 294 kts 129°
2026-05-04 04:34 33.45624 -118.06799 12981 ft 293 kts 129°
2026-05-04 04:35 33.44487 -118.04776 12974 ft 291 kts 129°
2026-05-04 04:35 33.43358 -118.02769 12984 ft 290 kts 129°
2026-05-04 04:35 33.42231 -118.00768 12985 ft 290 kts 129°
2026-05-04 04:35 33.41104 -117.98769 12983 ft 289 kts 129°
2026-05-04 04:36 33.39979 -117.96772 12979 ft 290 kts 130°
2026-05-04 04:36 33.38850 -117.94772 12982 ft 292 kts 130°
2026-05-04 04:36 33.37711 -117.92756 12981 ft 293 kts 130°
2026-05-04 04:36 33.36568 -117.90732 12983 ft 293 kts 130°
2026-05-04 04:37 33.33138 -117.84664 12983 ft 293 kts 130°
2026-05-04 04:37 33.31997 -117.82648 12977 ft 293 kts 130°
2026-05-04 04:38 33.30851 -117.80625 12978 ft 293 kts 130°
2026-05-04 04:38 33.29706 -117.78604 12979 ft 293 kts 130°
2026-05-04 04:38 33.28563 -117.76587 12977 ft 293 kts 130°
2026-05-04 04:38 33.27419 -117.74570 12985 ft 293 kts 130°
2026-05-04 04:39 33.26276 -117.72557 12981 ft 293 kts 130°
2026-05-04 04:39 33.25130 -117.70538 12978 ft 293 kts 130°
2026-05-04 04:39 33.23877 -117.68333 12982 ft 293 kts 130°
2026-05-04 04:39 33.22837 -117.66503 12981 ft 294 kts 130°
2026-05-04 04:40 33.21684 -117.64476 12986 ft 295 kts 130°
2026-05-04 04:40 33.20534 -117.62457 12982 ft 295 kts 130°
2026-05-04 04:40 33.19381 -117.60431 12984 ft 295 kts 130°
2026-05-04 04:40 33.18230 -117.58410 12985 ft 295 kts 130°
2026-05-04 04:41 33.17072 -117.56379 12983 ft 295 kts 130°
2026-05-04 04:41 33.15920 -117.54360 12894 ft 295 kts 130°
2026-05-04 04:41 33.14762 -117.52330 12508 ft 295 kts 130°
2026-05-04 04:41 33.13624 -117.50336 12056 ft 294 kts 129°
2026-05-04 04:42 33.12476 -117.48325 11616 ft 293 kts 129°
2026-05-04 04:42 33.11311 -117.46288 11151 ft 292 kts 129°
2026-05-04 04:42 33.10183 -117.44314 10732 ft 291 kts 129°
2026-05-04 04:42 33.09046 -117.42326 10296 ft 289 kts 129°
2026-05-04 04:43 33.07913 -117.40348 9878 ft 287 kts 129°
2026-05-04 04:43 33.06793 -117.38391 9421 ft 285 kts 129°
2026-05-04 04:43 33.05676 -117.36441 8954 ft 283 kts 129°
2026-05-04 04:43 33.04507 -117.34578 8499 ft 278 kts 136°
2026-05-04 04:44 33.02948 -117.33048 8097 ft 268 kts 153°
2026-05-04 04:44 33.01399 -117.32223 7999 ft 255 kts 163°
2026-05-04 04:44 32.99746 -117.31525 7980 ft 251 kts 163°
2026-05-04 04:44 32.98179 -117.30596 7978 ft 257 kts 144°
2026-05-04 04:45 32.97093 -117.28881 7981 ft 266 kts 117°
2026-05-04 04:45 32.96652 -117.26722 7984 ft 272 kts 103°
2026-05-04 04:45 32.96426 -117.24482 7977 ft 273 kts 101°
2026-05-04 04:47 32.95193 -117.10975 7978 ft 273 kts 101°
2026-05-04 04:47 32.94982 -117.08769 7975 ft 271 kts 103°
2026-05-04 04:47 32.94330 -117.06722 7979 ft 261 kts 129°
2026-05-04 04:47 32.93141 -117.05113 7962 ft 258 kts 139°
2026-05-04 04:48 32.91845 -117.03650 7946 ft 256 kts 141°
2026-05-04 04:49 32.86604 -116.97827 7945 ft 258 kts 141°
2026-05-04 04:49 32.85297 -116.96370 7941 ft 258 kts 141°
2026-05-04 04:49 32.84002 -116.94917 7771 ft 253 kts 141°
2026-05-04 04:49 32.82759 -116.93470 7383 ft 247 kts 141°
2026-05-04 04:50 32.81515 -116.92059 7025 ft 246 kts 141°
2026-05-04 04:50 32.80273 -116.90670 6658 ft 244 kts 141°
2026-05-04 04:50 32.79040 -116.89293 6300 ft 241 kts 141°
2026-05-04 04:50 32.77813 -116.87982 5928 ft 238 kts 145°
2026-05-04 04:51 32.76326 -116.87231 5548 ft 231 kts 174°
2026-05-04 04:51 32.74743 -116.87132 5189 ft 228 kts 181°
2026-05-04 04:51 32.73157 -116.87192 4991 ft 222 kts 186°
2026-05-04 04:51 32.71689 -116.87475 4972 ft 211 kts 190°
2026-05-04 04:52 32.70280 -116.87804 4959 ft 201 kts 190°
2026-05-04 04:52 32.68911 -116.88126 4773 ft 201 kts 191°
2026-05-04 04:52 32.67516 -116.88452 4410 ft 206 kts 194°
2026-05-04 04:52 32.66181 -116.89153 4008 ft 215 kts 214°
2026-05-04 04:53 32.65210 -116.90517 3558 ft 223 kts 246°
2026-05-04 04:53 32.65111 -116.92336 3142 ft 227 kts 287°
2026-05-04 04:53 32.65933 -116.93828 2927 ft 205 kts 312°
2026-05-04 04:53 32.66857 -116.94944 2952 ft 178 kts 313°
2026-05-04 04:54 32.67696 -116.95989 2959 ft 172 kts 311°
2026-05-04 04:54 32.68435 -116.97050 2935 ft 165 kts 303°
2026-05-04 04:54 32.68846 -116.98293 2930 ft 160 kts 277°
2026-05-04 04:54 32.68908 -116.99598 2945 ft 157 kts 271°
2026-05-04 04:55 32.69029 -117.00892 2921 ft 158 kts 279°
2026-05-04 04:55 32.69290 -117.02165 2688 ft 160 kts 283°
2026-05-04 04:55 32.69589 -117.03418 2429 ft 154 kts 284°
2026-05-04 04:55 32.69875 -117.04596 2280 ft 142 kts 285°
2026-05-04 04:56 32.70140 -117.05687 2450 ft 137 kts 285°
2026-05-04 04:56 32.70406 -117.06786 2984 ft 136 kts 284°
2026-05-04 04:56 32.70659 -117.07827 3668 ft 131 kts 284°
2026-05-04 04:56 32.71125 -117.08750 4222 ft 135 kts 322°
2026-05-04 04:57 32.72042 -117.09011 4753 ft 142 kts
2026-05-04 04:57 32.73115 -117.08860 4975 ft 173 kts
2026-05-04 04:57 32.74421 -117.08589 4951 ft 202 kts 10°
2026-05-04 04:57 32.75842 -117.08279 4950 ft 213 kts 11°
2026-05-04 04:58 32.77359 -117.07941 4953 ft 231 kts 11°
2026-05-04 04:58 32.78956 -117.07582 4972 ft 234 kts 11°
2026-05-04 04:58 32.80556 -117.07221 4973 ft 234 kts 11°
2026-05-04 04:58 32.82056 -117.06570 4978 ft 235 kts 34°
2026-05-04 04:59 32.83105 -117.05100 4970 ft 231 kts 67°
2026-05-04 04:59 32.83325 -117.03253 4972 ft 227 kts 98°
2026-05-04 04:59 32.83049 -117.01437 4975 ft 226 kts 106°
2026-05-04 04:59 32.82687 -116.99623 4966 ft 225 kts 106°
2026-05-04 05:00 32.82323 -116.97811 4966 ft 225 kts 106°
2026-05-04 05:00 32.81964 -116.95999 4965 ft 225 kts 106°
2026-05-04 05:00 32.81217 -116.92387 4970 ft 225 kts 106°
2026-05-04 05:01 32.80835 -116.90578 4970 ft 226 kts 105°
2026-05-04 05:01 32.80459 -116.88772 4947 ft 225 kts 104°
2026-05-04 05:01 32.79822 -116.87094 4948 ft 222 kts 131°
2026-05-04 05:01 32.78582 -116.86083 4970 ft 220 kts 163°
2026-05-04 05:02 32.77059 -116.85932 4959 ft 221 kts 187°
2026-05-04 05:02 32.75526 -116.86158 4961 ft 222 kts 192°
2026-05-04 05:02 32.74013 -116.86438 4973 ft 217 kts 189°
2026-05-04 05:02 32.72530 -116.86724 4961 ft 216 kts 193°
2026-05-04 05:03 32.71033 -116.87008 4957 ft 220 kts 193°
2026-05-04 05:03 32.69511 -116.87319 4947 ft 221 kts 191°
2026-05-04 05:04 32.66042 -116.90279 4367 ft 216 kts 249°
2026-05-04 05:04 32.65974 -116.92036 4079 ft 214 kts 282°
2026-05-04 05:04 32.66449 -116.93693 3819 ft 210 kts 291°
2026-05-04 05:06 32.69651 -117.03740 2336 ft 159 kts 284°
2026-05-04 05:06 32.69950 -117.04991 2157 ft 157 kts 284°
2026-05-04 05:06 32.70251 -117.06224 1993 ft 151 kts 284°
2026-05-04 05:07 32.70432 -117.06998 1898 ft 142 kts 284°
2026-05-04 05:07 32.70697 -117.08071 1733 ft 129 kts 285°
2026-05-04 05:07 32.70933 -117.09062 1543 ft 117 kts 284°
2026-05-04 05:09 32.72767 -117.16547 347 ft 121 kts 288°
2026-05-04 05:09 32.72994 -117.17492 156 ft 118 kts 287°
2026-05-04 05:10 32.73225 -117.18431 36 ft 118 kts 287°
2026-05-04 05:10 32.73413 -117.19203 28 ft 62 kts 286°
2026-05-04 05:10 32.73488 -117.19508 29 ft 32 kts 286°
2026-05-04 05:10 32.73538 -117.19712 33 ft 20 kts 286°
2026-05-04 05:11 32.73532 -117.19812 30 ft 11 kts 234°
2026-05-04 05:11 32.73496 -117.19877 30 ft 0 kts 245°
2026-05-04 05:12 32.73494 -117.19883 30 ft 3 kts 245°
2026-05-04 05:12 32.73472 -117.19933 30 ft 10 kts 235°
2026-05-04 05:12 32.73397 -117.19968 28 ft 13 kts 194°
2026-05-04 05:12 32.73337 -117.19983 28 ft 5 kts 182°
2026-05-04 05:13 32.73295 -117.19961 28 ft 8 kts 144°
2026-05-04 05:13 32.73252 -117.19946 27 ft 2 kts 185°
2026-05-04 05:13 32.73237 -117.19946 27 ft 2 kts 182°
2026-05-04 05:13 32.73234 -117.19946 27 ft 0 kts 182°